Location: WHS+Essen
(51.3947°N, 6.9794°E)
Time: 02:41:05
(UTC+02:00)

ISS - Pass Details

Date: 27 March 2019
Orbit: 408 x 410 km, 51.6° (Epoch: 23 April)

Event Time Altitude Azimuth Distance (km) Brightness Sun altitude
Rises 20:07:27 0° 254° (WSW) 2,334 1.0 -11.6°
Reaches altitude 10° 20:09:32 10° 254° (WSW) 1,473 -0.1 -11.9°
Maximum altitude 20:12:50 79° 167° (SSE) 421 -3.9 -12.4°
Enters shadow 20:14:59 20° 82° (E) 1,012 -2.3 -12.7°
